• In Moldova, Republic
  • List of Countries
  • For 7 days
  • Water Temperature
  • Satellite Maps
  • Weather Map
  • Weather Widgets
  • user-avatar
    Login

    Hourly Weather Kalgoorlie

    Today, 24 April, Monday

    Time Temperature Precipitation Wind Pressure Humidity
    00:00 +16°C° 0 mm 5 mps 733 mmHg 64%
    01:00 +15°C° 0 mm 5 mps 733 mmHg 68%
    02:00 +14°C° 0 mm 4 mps 733 mmHg 74%
    03:00 +14°C° 0 mm 4 mps 733 mmHg 77%
    04:00 +13°C° 0 mm 3 mps 733 mmHg 80%
    05:00 +13°C° 0 mm 3 mps 733 mmHg 84%
    06:00 +13°C° 0 mm 3 mps 733 mmHg 82%
    07:00 +14°C° 0 mm 4 mps 733 mmHg 81%
    08:00 +14°C° 0 mm 4 mps 734 mmHg 76%
    09:00 +17°C° 0 mm 4 mps 734 mmHg 67%
    10:00 +19°C° 0 mm 3 mps 734 mmHg 58%
    11:00 +20°C° 0 mm 3 mps 733 mmHg 48%
    12:00 +21°C° 0 mm 3 mps 733 mmHg 44%
    13:00 +22°C° 0 mm 3 mps 733 mmHg 40%
    14:00 +24°C° 0 mm 3 mps 732 mmHg 36%
    15:00 +22°C° 0 mm 3 mps 732 mmHg 37%
    16:00 +22°C° 0 mm 3 mps 732 mmHg 39%
    17:00 +21°C° 0 mm 3 mps 732 mmHg 40%
    18:00 +20°C° 0 mm 3 mps 732 mmHg 43%
    19:00 +19°C° 0 mm 3 mps 733 mmHg 46%
    20:00 +18°C° 0 mm 3 mps 733 mmHg 49%
    21:00 +18°C° 0 mm 3 mps 733 mmHg 52%
    22:00 +17°C° 0 mm 3 mps 733 mmHg 55%
    23:00 +16°C° 0 mm 3 mps 733 mmHg 57%

    Tomorrow, 25 April, Tuesday

    Time Temperature Precipitation Wind Pressure Humidity
    00:00 +16°C° 0 mm 3 mps 733 mmHg 60%
    01:00 +15°C° 0 mm 2 mps 733 mmHg 63%
    02:00 +15°C° 0 mm 2 mps 733 mmHg 65%
    03:00 +14°C° 0 mm 2 mps 733 mmHg 68%
    04:00 +14°C° 0 mm 2 mps 733 mmHg 71%
    05:00 +14°C° 0 mm 2 mps 734 mmHg 74%
    06:00 +14°C° 0 mm 2 mps 734 mmHg 73%
    07:00 +15°C° 0 mm 2 mps 735 mmHg 72%
    08:00 +15°C° 0 mm 2 mps 735 mmHg 71%
    09:00 +17°C° 0 mm 2 mps 735 mmHg 63%
    10:00 +19°C° 0 mm 2 mps 735 mmHg 55%
    11:00 +20°C° 0 mm 2 mps 736 mmHg 48%
    12:00 +21°C° 0 mm 3 mps 735 mmHg 44%
    13:00 +21°C° 0 mm 3 mps 735 mmHg 41%
    14:00 +22°C° 0 mm 4 mps 734 mmHg 38%
    15:00 +21°C° 0 mm 4 mps 734 mmHg 40%
    16:00 +21°C° 0 mm 4 mps 735 mmHg 42%
    17:00 +20°C° 0 mm 4 mps 735 mmHg 44%
    18:00 +19°C° 0 mm 4 mps 735 mmHg 49%
    19:00 +17°C° 0 mm 5 mps 736 mmHg 55%
    20:00 +16°C° 0 mm 5 mps 736 mmHg 60%
    21:00 +15°C° 0 mm 5 mps 736 mmHg 62%
    22:00 +14°C° 0 mm 5 mps 736 mmHg 64%
    23:00 +14°C° 0 mm 5 mps 737 mmHg 66%

    Day after tomorrow, 26 April, Wednesday

    Time Temperature Precipitation Wind Pressure Humidity
    00:00 +13°C° 0 mm 4 mps 737 mmHg 69%
    01:00 +13°C° 0 mm 4 mps 737 mmHg 71%
    02:00 +12°C° 0 mm 3 mps 737 mmHg 73%
    03:00 +12°C° 0 mm 3 mps 737 mmHg 75%
    04:00 +12°C° 0 mm 3 mps 737 mmHg 77%
    05:00 +11°C° 0 mm 3 mps 737 mmHg 79%
    06:00 +12°C° 0 mm 3 mps 737 mmHg 77%
    07:00 +13°C° 0 mm 3 mps 737 mmHg 75%
    08:00 +13°C° 0 mm 4 mps 738 mmHg 73%
    09:00 +16°C° 0 mm 3 mps 738 mmHg 66%
    10:00 +17°C° 0 mm 3 mps 738 mmHg 59%
    11:00 +19°C° 0 mm 3 mps 738 mmHg 52%
    12:00 +20°C° 0 mm 3 mps 737 mmHg 48%
    13:00 +20°C° 0 mm 3 mps 737 mmHg 43%
    14:00 +21°C° 0 mm 3 mps 736 mmHg 39%
    15:00 +21°C° 0 mm 3 mps 736 mmHg 40%
    16:00 +20°C° 0 mm 3 mps 736 mmHg 42%
    17:00 +20°C° 0 mm 3 mps 736 mmHg 44%
    18:00 +19°C° 0 mm 4 mps 737 mmHg 49%
    19:00 +17°C° 0 mm 4 mps 737 mmHg 55%
    20:00 +15°C° 0 mm 5 mps 738 mmHg 61%
    21:00 +15°C° 0 mm 4 mps 738 mmHg 65%
    22:00 +14°C° 0 mm 4 mps 738 mmHg 68%
    23:00 +13°C° 0 mm 4 mps 738 mmHg 72%

    27 April, Thursday

    Time Temperature Precipitation Wind Pressure Humidity
    00:00 +13°C° 0 mm 4 mps 738 mmHg 73%
    01:00 +12°C° 0 mm 4 mps 738 mmHg 75%
    02:00 +12°C° 0 mm 3 mps 738 mmHg 76%
    03:00 +12°C° 0 mm 3 mps 738 mmHg 76%
    04:00 +11°C° 0 mm 3 mps 738 mmHg 77%
    05:00 +11°C° 0 mm 3 mps 738 mmHg 77%
    06:00 +11°C° 0 mm 4 mps 739 mmHg 73%
    07:00 +12°C° 0 mm 4 mps 739 mmHg 70%
    08:00 +12°C° 0 mm 5 mps 740 mmHg 66%
    09:00 +14°C° 0 mm 5 mps 739 mmHg 59%
    10:00 +17°C° 0 mm 4 mps 739 mmHg 51%
    11:00 +18°C° 0 mm 4 mps 739 mmHg 43%
    12:00 +19°C° 0 mm 4 mps 738 mmHg 40%
    13:00 +20°C° 0 mm 4 mps 738 mmHg 36%
    14:00 +21°C° 0 mm 4 mps 737 mmHg 33%
    15:00 +20°C° 0 mm 4 mps 737 mmHg 35%
    16:00 +19°C° 0 mm 3 mps 737 mmHg 36%
    17:00 +19°C° 0 mm 3 mps 737 mmHg 38%
    18:00 +18°C° 0 mm 3 mps 737 mmHg 41%
    19:00 +17°C° 0 mm 3 mps 738 mmHg 44%
    20:00 +15°C° 0 mm 4 mps 738 mmHg 47%
    21:00 +15°C° 0 mm 4 mps 738 mmHg 48%
    22:00 +15°C° 0 mm 4 mps 738 mmHg 50%
    23:00 +14°C° 0 mm 4 mps 738 mmHg 52%

    28 April, Friday

    Time Temperature Precipitation Wind Pressure Humidity
    00:00 +14°C° 0 mm 3 mps 738 mmHg 53%
    01:00 +13°C° 0 mm 3 mps 738 mmHg 54%
    02:00 +13°C° 0 mm 3 mps 738 mmHg 55%
    03:00 +13°C° 0 mm 3 mps 738 mmHg 55%
    04:00 +13°C° 0 mm 3 mps 738 mmHg 56%
    05:00 +12°C° 0 mm 3 mps 738 mmHg 57%
    06:00 +13°C° 0 mm 3 mps 738 mmHg 55%
    07:00 +14°C° 0 mm 4 mps 738 mmHg 53%
    08:00 +14°C° 0 mm 5 mps 739 mmHg 51%
    09:00 +16°C° 0 mm 5 mps 738 mmHg 46%
    10:00 +17°C° 0 mm 5 mps 738 mmHg 40%
    11:00 +20°C° 0 mm 5 mps 738 mmHg 35%
    12:00 +21°C° 0 mm 4 mps 738 mmHg 32%
    13:00 +21°C° 0 mm 4 mps 737 mmHg 30%
    14:00 +22°C° 0 mm 4 mps 736 mmHg 28%
    15:00 +21°C° 0 mm 4 mps 736 mmHg 29%
    16:00 +20°C° 0 mm 4 mps 736 mmHg 31%
    17:00 +20°C° 0 mm 3 mps 736 mmHg 33%
    18:00 +19°C° 0 mm 4 mps 737 mmHg 37%
    19:00 +17°C° 0 mm 4 mps 737 mmHg 40%
    20:00 +15°C° 0 mm 4 mps 737 mmHg 43%
    21:00 +15°C° 0 mm 4 mps 737 mmHg 45%
    22:00 +14°C° 0 mm 4 mps 737 mmHg 47%
    23:00 +14°C° 0 mm 4 mps 737 mmHg 49%

    29 April, Saturday

    Time Temperature Precipitation Wind Pressure Humidity
    00:00 +13°C° 0 mm 4 mps 737 mmHg 51%
    01:00 +13°C° 0 mm 3 mps 737 mmHg 53%
    02:00 +12°C° 0 mm 3 mps 737 mmHg 54%
    03:00 +12°C° 0 mm 3 mps 737 mmHg 56%
    04:00 +12°C° 0 mm 3 mps 737 mmHg 58%
    05:00 +11°C° 0 mm 3 mps 737 mmHg 59%
    06:00 +12°C° 0 mm 4 mps 737 mmHg 57%
    07:00 +13°C° 0 mm 4 mps 738 mmHg 55%
    08:00 +13°C° 0 mm 5 mps 738 mmHg 53%
    09:00 +15°C° 0 mm 5 mps 738 mmHg 47%
    10:00 +17°C° 0 mm 5 mps 738 mmHg 41%
    11:00 +20°C° 0 mm 5 mps 737 mmHg 35%
    12:00 +20°C° 0 mm 5 mps 737 mmHg 33%
    13:00 +21°C° 0 mm 5 mps 736 mmHg 31%
    14:00 +22°C° 0 mm 4 mps 736 mmHg 30%
    15:00 +21°C° 0 mm 4 mps 736 mmHg 32%
    16:00 +20°C° 0 mm 4 mps 736 mmHg 34%
    17:00 +19°C° 0 mm 4 mps 736 mmHg 37%
    18:00 +18°C° 0 mm 4 mps 736 mmHg 41%
    19:00 +17°C° 0 mm 4 mps 736 mmHg 45%
    20:00 +15°C° 0 mm 4 mps 736 mmHg 48%
    21:00 +15°C° 0 mm 4 mps 736 mmHg 51%
    22:00 +14°C° 0 mm 4 mps 736 mmHg 55%
    23:00 +13°C° 0 mm 4 mps 736 mmHg 58%
    Show more